Flag for Aruba Weather past 2 weeks in Oranjestad, Aruba

Now
84 °F

Scattered clouds.


Feels Like: 92 °F
Forecast: 80 / 88 °F
Wind: 22 mph from East

Location: Queen Beatrix Airport - Aruba

Current Time: Feb 28, 2015 at 10:51:44 AM

Latest Report: Feb 28, 2015 at 10:00 AM


Visibility: N/A

Pressure: 30.01 "Hg

Humidity: 74%

Dew point: 75 °F

Location of OranjestadLocation

Historic Weather in Oranjestad — Graph

°F

Oranjestad temperature yesterday

Maximum temperature yesterday: 90 °F (at 1:00 PM)
Minimum temperature yesterday: 79 °F (at 5:00 AM)
Average temperature yesterday: 83 °F

Past Weeks' High & Low Weather Summary

 TemperatureHumidityPressure
High90 °F (Feb 13, 1:00 PM)89% (Feb 23, 5:00 AM)30.01 "Hg (Feb 23, 5:00 AM)
Low75 °F (Feb 23, 5:00 AM)59% (Feb 15, 2:00 PM)29.80 "Hg (Feb 14, 11:00 AM)
Average83 °F73%29.91 "Hg
* Reported Feb 13 9:00 AM — Feb 28 9:00 AM, Oranjestad, Weather by CustomWeather, © 2015

Note: Actual official high and low records may vary slightly from our data, if they occured in-between our weather recording intervals... More about our weather records

Advertising

Oranjestad weather history for previous 24 hours

 ConditionsComfort  
Time TempWeatherWind HumidityBarometerVisibility
9:00 AM
Sat, Feb 28
82 °FScattered clouds.23 mph74%29.98 "HgN/A
8:00 AM81 °FSprinkles. Partly sunny.20 mph79%29.95 "HgN/A
7:00 AM81 °FScattered clouds.16 mph79%29.92 "HgN/A
6:00 AM81 °FPassing clouds.18 mph79%29.89 "HgN/A
5:00 AM79 °FPassing clouds.16 mph84%29.89 "HgN/A
4:00 AM81 °FScattered showers. Passing clouds.18 mph79%29.89 "HgN/A
3:00 AM79 °FPassing clouds.22 mph89%29.89 "HgN/A
2:00 AM81 °FPassing clouds.22 mph84%29.89 "HgN/A
1:00 AM81 °FPassing clouds.22 mph84%29.89 "HgN/A
12:00 AM81 °FPassing clouds.25 mph79%29.92 "HgN/A
11:00 PM
Fri, Feb 27
81 °FPassing clouds.24 mph79%29.92 "HgN/A
10:00 PM81 °FPassing clouds.23 mph84%29.92 "HgN/A
9:00 PM81 °FPassing clouds.21 mph79%29.89 "HgN/A
8:00 PM81 °FPassing clouds.22 mph79%29.89 "HgN/A
7:00 PM82 °FPassing clouds.18 mph79%29.86 "HgN/A
6:00 PM82 °FPassing clouds.22 mph79%29.86 "HgN/A
5:00 PM84 °FScattered clouds.24 mph74%29.86 "HgN/A
4:00 PM84 °FScattered clouds.26 mph74%29.86 "HgN/A
3:00 PM88 °FPassing clouds.24 mph66%29.86 "HgN/A
2:00 PM90 °FPassing clouds.24 mph59%29.89 "HgN/A
1:00 PM90 °FPassing clouds.22 mph63%29.92 "HgN/A
12:00 PM88 °FPassing clouds.22 mph66%29.95 "HgN/A
11:00 AM88 °FPassing clouds.24 mph62%29.98 "HgN/A
10:00 AM86 °FPassing clouds.25 mph62%29.95 "HgN/A
Weather by CustomWeather, © 2015

See weather overviewHow to use our weather pages